Simultaneous Nadir Overpasses (SNOs) Predictions

Prediction of SNOs between NOAA-20 and AQUA Satellite Orbit:

Table of predicted SNOs for the next 14.0 days since TLE Epoch: 2/1/2025
Index Date (NOAA-20) Time (NOAA-20) Lat,Lon (NOAA-20) SZA (NOAA-20 ) Date (AQUA) Time (AQUA) Lat,Lon (AQUA) SZA (AQUA ) Distance(km) Time Diff (sec)
1 02/03/2025 01:19:02 81.31, 90.67 103.78 02/03/2025 01:18:54 81.31, 90.64 103.78 1.05 8
2 02/05/2025 10:49:56 81.32, -51.83 103.04 02/05/2025 10:51:06 81.32, -52.03 103.03 3.27 70
3 02/05/2025 11:40:41 -81.31, 115.51 76.98 02/05/2025 11:40:26 -81.31, 115.42 76.96 1.57 15
4 02/07/2025 21:11:37 -81.31, -27.45 77.68 02/07/2025 21:12:38 -81.31, -27.52 77.71 1.16 61
5 02/07/2025 22:02:21 81.32, 140.18 102.27 02/07/2025 22:01:56 81.32, 140.37 102.26 3.30 25
6 02/10/2025 07:33:17 81.31, -2.86 101.55 02/10/2025 07:34:07 81.31, -2.94 101.53 1.44 50
7 02/10/2025 08:24:01 -81.32, 164.87 78.52 02/10/2025 08:23:26 -81.32, 164.96 78.51 1.49 35
8 02/12/2025 17:54:57 -81.31, 21.76 79.25 02/12/2025 17:55:35 -81.31, 21.76 79.28 0.68 38
9 02/12/2025 18:45:41 81.32,-170.61 100.69 02/12/2025 18:44:53 81.31,-170.45 100.70 2.69 48



Historial Predications of SNOs between NOAA-20 and AQUA
